Time,TemperatureF,DewpointF,PressureIn,WindDirection,WindDirectionDegrees,WindSpeedMPH,WindSpeedGustMPH,Humidity,HourlyPrecipIn,Conditions,Clouds,dailyrainin,SoftwareType,DateUTC
2013-03-04 00:00:00,35.3,25.0,29.87,North,349,0.0,-999.0,66,-99.99,,,0.00,weatherlink.com 1.10,2013-03-04 05:00:00,
2013-03-04 00:15:00,35.3,25.0,29.88,NNW,344,2.0,-999.0,66,-99.99,,,0.00,weatherlink.com 1.10,2013-03-04 05:15:00,
2013-03-04 00:30:00,35.8,24.0,29.88,NNW,340,0.0,-999.0,63,-99.99,,,0.00,weatherlink.com 1.10,2013-03-04 05:30:00,
2013-03-04 00:45:00,35.3,24.0,29.89,NNW,329,0.0,-999.0,63,-99.99,,,0.00,weatherlink.com 1.10,2013-03-04 05:45:00,
2013-03-04 01:00:00,34.6,23.0,29.89,North,352,0.0,-999.0,62,-99.99,,,0.00,weatherlink.com 1.10,2013-03-04 06:00:00,
2013-03-04 01:15:00,34.1,22.0,29.89,North,350,2.0,-999.0,62,-99.99,,,0.00,weatherlink.com 1.10,2013-03-04 06:15:00,
2013-03-04 01:30:00,34.1,22.0,29.88,NW,325,4.0,-999.0,61,-99.99,,,0.00,weatherlink.com 1.10,2013-03-04 06:30:00,
2013-03-04 01:45:00,33.4,22.0,29.88,North,350,6.0,-999.0,62,-99.99,,,0.00,weatherlink.com 1.10,2013-03-04 06:45:00,
2013-03-04 02:00:00,32.9,21.0,29.88,NNW,330,2.0,-999.0,61,-99.99,,,0.00,weatherlink.com 1.10,2013-03-04 07:00:00,
2013-03-04 02:15:00,32.9,21.0,29.88,NNW,344,0.0,-999.0,61,-99.99,,,0.00,weatherlink.com 1.10,2013-03-04 07:15:00,
2013-03-04 02:30:00,32.5,21.0,29.88,North,359,4.0,-999.0,62,-99.99,,,0.00,weatherlink.com 1.10,2013-03-04 07:30:00,
2013-03-04 02:45:00,32.2,21.0,29.88,NNW,347,2.0,-999.0,64,-99.99,,,0.00,weatherlink.com 1.10,2013-03-04 07:45:00,
2013-03-04 03:00:00,31.8,20.0,29.88,NNW,335,9.0,-999.0,63,-99.99,,,0.00,weatherlink.com 1.10,2013-03-04 08:00:00,
2013-03-04 03:15:00,31.3,20.0,29.89,NNW,343,6.0,-999.0,62,-99.99,,,0.00,weatherlink.com 1.10,2013-03-04 08:15:00,
2013-03-04 03:30:00,31.2,19.0,29.89,NNW,346,6.0,-999.0,62,-99.99,,,0.00,weatherlink.com 1.10,2013-03-04 08:30:00,
2013-03-04 03:45:00,30.9,20.0,29.89,NNW,340,6.0,-999.0,63,-99.99,,,0.00,weatherlink.com 1.10,2013-03-04 08:45:00,
2013-03-04 04:00:00,30.4,19.0,29.90,North,349,0.0,-999.0,64,-99.99,,,0.00,weatherlink.com 1.10,2013-03-04 09:00:00,
2013-03-04 04:15:00,30.0,19.0,29.91,NNW,335,1.0,-999.0,65,-99.99,,,0.00,weatherlink.com 1.10,2013-03-04 09:15:00,
2013-03-04 04:30:00,29.7,20.0,29.91,North,349,0.0,-999.0,66,-99.99,,,0.00,weatherlink.com 1.10,2013-03-04 09:30:00,
2013-03-04 04:45:00,29.7,19.0,29.91,North,0,0.0,-999.0,65,-99.99,,,0.00,weatherlink.com 1.10,2013-03-04 09:45:00,
2013-03-04 05:00:00,30.0,19.0,29.92,North,352,0.0,-999.0,64,-99.99,,,0.00,weatherlink.com 1.10,2013-03-04 10:00:00,
2013-03-04 05:15:00,29.8,19.0,29.92,NNW,336,0.0,-999.0,64,-99.99,,,0.00,weatherlink.com 1.10,2013-03-04 10:15:00,
2013-03-04 05:30:00,29.8,18.0,29.92,NNW,336,6.0,-999.0,63,-99.99,,,0.00,weatherlink.com 1.10,2013-03-04 10:30:00,
2013-03-04 05:45:00,29.7,19.0,29.93,NNW,335,6.0,-999.0,64,-99.99,,,0.00,weatherlink.com 1.10,2013-03-04 10:45:00,
2013-03-04 06:00:00,29.5,18.0,29.94,NNW,336,0.0,-999.0,63,-99.99,,,0.00,weatherlink.com 1.10,2013-03-04 11:00:00,
2013-03-04 06:15:00,29.5,18.0,29.95,North,349,4.0,-999.0,63,-99.99,,,0.00,weatherlink.com 1.10,2013-03-04 11:15:00,
2013-03-04 06:30:00,29.4,18.0,29.95,North,350,2.0,-999.0,63,-99.99,,,0.00,weatherlink.com 1.10,2013-03-04 11:30:00,
2013-03-04 06:45:00,29.5,18.0,29.96,NNW,330,0.0,-999.0,63,-99.99,,,0.00,weatherlink.com 1.10,2013-03-04 11:45:00,
2013-03-04 07:00:00,29.7,18.0,29.97,NNW,342,0.0,-999.0,63,-99.99,,,0.00,weatherlink.com 1.10,2013-03-04 12:00:00,
2013-03-04 07:15:00,30.1,19.0,29.97,NNW,343,8.0,-999.0,63,-99.99,,,0.00,weatherlink.com 1.10,2013-03-04 12:15:00,
2013-03-04 07:30:00,30.9,20.0,29.98,NNW,332,0.0,-999.0,63,-99.99,,,0.00,weatherlink.com 1.10,2013-03-04 12:30:00,
2013-03-04 07:45:00,31.5,19.0,29.99,NW,319,2.0,-999.0,59,-99.99,,,0.00,weatherlink.com 1.10,2013-03-04 12:45:00,
2013-03-04 08:00:00,32.4,19.0,29.99,NNW,343,10.0,-999.0,58,-99.99,,,0.00,weatherlink.com 1.10,2013-03-04 13:00:00,
2013-03-04 08:15:00,32.8,19.0,30.00,NNW,332,8.0,-999.0,58,-99.99,,,0.00,weatherlink.com 1.10,2013-03-04 13:15:00,
2013-03-04 08:30:00,33.7,19.0,30.00,NNW,342,9.0,-999.0,55,-99.99,,,0.00,weatherlink.com 1.10,2013-03-04 13:30:00,
2013-03-04 08:45:00,34.4,19.0,30.00,NNE,13,6.0,-999.0,54,-99.99,,,0.00,weatherlink.com 1.10,2013-03-04 13:45:00,
2013-03-04 09:00:00,35.2,19.0,30.00,NNW,346,0.0,-999.0,53,-99.99,,,0.00,weatherlink.com 1.10,2013-03-04 14:00:00,
2013-03-04 09:15:00,36.2,20.0,30.00,NNW,344,0.0,-999.0,52,-99.99,,,0.00,weatherlink.com 1.10,2013-03-04 14:15:00,
2013-03-04 09:30:00,36.9,20.0,30.01,WNW,302,4.0,-999.0,51,-99.99,,,0.00,weatherlink.com 1.10,2013-03-04 14:30:00,
2013-03-04 09:45:00,37.6,20.0,30.01,NNW,346,4.0,-999.0,50,-99.99,,,0.00,weatherlink.com 1.10,2013-03-04 14:45:00,
2013-03-04 10:00:00,38.0,20.0,30.02,NW,311,4.0,-999.0,48,-99.99,,,0.00,weatherlink.com 1.10,2013-03-04 15:00:00,
2013-03-04 10:15:00,39.1,21.0,30.02,NNW,333,0.0,-999.0,48,-99.99,,,0.00,weatherlink.com 1.10,2013-03-04 15:15:00,
2013-03-04 10:30:00,39.5,20.0,30.01,NW,311,10.0,-999.0,45,-99.99,,,0.00,weatherlink.com 1.10,2013-03-04 15:30:00,
2013-03-04 10:45:00,39.8,20.0,30.01,NNW,337,6.0,-999.0,45,-99.99,,,0.00,weatherlink.com 1.10,2013-03-04 15:45:00,
2013-03-04 11:00:00,40.5,19.0,30.00,WNW,288,0.0,-999.0,43,-99.99,,,0.00,weatherlink.com 1.10,2013-03-04 16:00:00,
2013-03-04 11:15:00,41.1,20.0,30.00,NNW,344,0.0,-999.0,43,-99.99,,,0.00,weatherlink.com 1.10,2013-03-04 16:15:00,
2013-03-04 11:30:00,41.5,20.0,30.00,North,357,6.0,-999.0,42,-99.99,,,0.00,weatherlink.com 1.10,2013-03-04 16:30:00,
2013-03-04 11:45:00,41.9,18.0,30.00,North,352,9.0,-999.0,38,-99.99,,,0.00,weatherlink.com 1.10,2013-03-04 16:45:00,
2013-03-04 12:00:00,42.6,18.0,29.99,WNW,282,0.0,-999.0,37,-99.99,,,0.00,weatherlink.com 1.10,2013-03-04 17:00:00,
2013-03-04 12:15:00,42.5,18.0,29.98,North,0,0.0,-999.0,37,-99.99,,,0.00,weatherlink.com 1.10,2013-03-04 17:15:00,
2013-03-04 12:30:00,42.9,17.0,29.98,NW,319,2.0,-999.0,36,-99.99,,,0.00,weatherlink.com 1.10,2013-03-04 17:30:00,
2013-03-04 12:45:00,43.8,18.0,29.97,NNW,330,7.0,-999.0,36,-99.99,,,0.00,weatherlink.com 1.10,2013-03-04 17:45:00,
2013-03-04 13:00:00,44.1,18.0,29.97,NW,323,7.0,-999.0,35,-99.99,,,0.00,weatherlink.com 1.10,2013-03-04 18:00:00,
2013-03-04 13:15:00,44.1,19.0,29.96,NNW,346,13.0,-999.0,36,-99.99,,,0.00,weatherlink.com 1.10,2013-03-04 18:15:00,
2013-03-04 13:30:00,44.5,17.0,29.95,NW,312,8.0,-999.0,33,-99.99,,,0.00,weatherlink.com 1.10,2013-03-04 18:30:00,
2013-03-04 13:45:00,44.9,18.0,29.95,NNW,343,4.0,-999.0,34,-99.99,,,0.00,weatherlink.com 1.10,2013-03-04 18:45:00,
2013-03-04 14:00:00,45.7,18.0,29.95,NNW,333,4.0,-999.0,33,-99.99,,,0.00,weatherlink.com 1.10,2013-03-04 19:00:00,
2013-03-04 14:15:00,45.7,16.0,29.95,North,0,0.0,-999.0,31,-99.99,,,0.00,weatherlink.com 1.10,2013-03-04 19:15:00,
2013-03-04 14:30:00,47.0,18.0,29.95,NW,320,10.0,-999.0,31,-99.99,,,0.00,weatherlink.com 1.10,2013-03-04 19:30:00,
2013-03-04 14:45:00,46.5,16.0,29.95,West,280,11.0,-999.0,29,-99.99,,,0.00,weatherlink.com 1.10,2013-03-04 19:45:00,
2013-03-04 15:00:00,47.0,14.0,29.95,NW,305,7.0,-999.0,27,-99.99,,,0.00,weatherlink.com 1.10,2013-03-04 20:00:00,
2013-03-04 15:15:00,47.4,16.0,29.95,North,352,4.0,-999.0,29,-99.99,,,0.00,weatherlink.com 1.10,2013-03-04 20:15:00,
2013-03-04 15:30:00,48.0,17.0,29.95,NW,319,0.0,-999.0,29,-99.99,,,0.00,weatherlink.com 1.10,2013-03-04 20:30:00,
2013-03-04 15:45:00,48.5,17.0,29.95,NNW,347,0.0,-999.0,29,-99.99,,,0.00,weatherlink.com 1.10,2013-03-04 20:45:00,
2013-03-04 16:00:00,48.3,17.0,29.95,NNW,347,0.0,-999.0,29,-99.99,,,0.00,weatherlink.com 1.10,2013-03-04 21:00:00,
2013-03-04 16:15:00,48.3,18.0,29.94,West,274,0.0,-999.0,30,-99.99,,,0.00,weatherlink.com 1.10,2013-03-04 21:15:00,
2013-03-04 16:30:00,48.8,18.0,29.95,NNW,328,8.0,-999.0,30,-99.99,,,0.00,weatherlink.com 1.10,2013-03-04 21:30:00,
2013-03-04 16:45:00,48.3,18.0,29.95,NW,311,0.0,-999.0,30,-99.99,,,0.00,weatherlink.com 1.10,2013-03-04 21:45:00,
2013-03-04 17:00:00,48.0,18.0,29.95,WNW,301,7.0,-999.0,30,-99.99,,,0.00,weatherlink.com 1.10,2013-03-04 22:00:00,
2013-03-04 17:15:00,47.7,18.0,29.95,NNW,340,0.0,-999.0,31,-99.99,,,0.00,weatherlink.com 1.10,2013-03-04 22:15:00,
2013-03-04 17:30:00,46.8,19.0,29.96,NW,319,0.0,-999.0,33,-99.99,,,0.00,weatherlink.com 1.10,2013-03-04 22:30:00,
2013-03-04 17:45:00,46.4,19.0,29.97,NW,309,0.0,-999.0,34,-99.99,,,0.00,weatherlink.com 1.10,2013-03-04 22:45:00,
2013-03-04 18:00:00,45.8,19.0,29.97,West,270,0.0,-999.0,35,-99.99,,,0.00,weatherlink.com 1.10,2013-03-04 23:00:00,
2013-03-04 18:15:00,44.9,21.0,29.98,NW,325,0.0,-999.0,38,-99.99,,,0.00,weatherlink.com 1.10,2013-03-04 23:15:00,
2013-03-04 18:30:00,44.1,20.0,29.98,NW,322,0.0,-999.0,39,-99.99,,,0.00,weatherlink.com 1.10,2013-03-04 23:30:00,
2013-03-04 18:45:00,43.6,21.0,29.99,NW,319,0.0,-999.0,40,-99.99,,,0.00,weatherlink.com 1.10,2013-03-04 23:45:00,
2013-03-04 19:00:00,43.1,21.0,30.00,NNW,329,0.0,-999.0,42,-99.99,,,0.00,weatherlink.com 1.10,2013-03-05 00:00:00,
2013-03-04 19:15:00,42.8,20.0,30.00,NW,322,0.0,-999.0,41,-99.99,,,0.00,weatherlink.com 1.10,2013-03-05 00:15:00,
2013-03-04 19:30:00,42.3,21.0,30.00,NW,322,0.0,-999.0,43,-99.99,,,0.00,weatherlink.com 1.10,2013-03-05 00:30:00,
2013-03-04 19:45:00,41.6,21.0,30.01,NW,322,0.0,-999.0,44,-99.99,,,0.00,weatherlink.com 1.10,2013-03-05 00:45:00,
2013-03-04 20:00:00,41.1,21.0,30.01,NW,322,0.0,-999.0,45,-99.99,,,0.00,weatherlink.com 1.10,2013-03-05 01:00:00,
2013-03-04 20:15:00,40.3,21.0,30.01,NW,322,0.0,-999.0,47,-99.99,,,0.00,weatherlink.com 1.10,2013-03-05 01:15:00,
2013-03-04 20:30:00,39.3,21.0,30.02,NW,322,0.0,-999.0,49,-99.99,,,0.00,weatherlink.com 1.10,2013-03-05 01:30:00,
2013-03-04 20:45:00,38.8,21.0,30.02,NW,322,0.0,-999.0,50,-99.99,,,0.00,weatherlink.com 1.10,2013-03-05 01:45:00,
2013-03-04 21:00:00,38.6,21.0,30.03,NW,322,0.0,-999.0,49,-99.99,,,0.00,weatherlink.com 1.10,2013-03-05 02:00:00,
2013-03-04 21:15:00,38.6,21.0,30.03,NW,322,0.0,-999.0,50,-99.99,,,0.00,weatherlink.com 1.10,2013-03-05 02:15:00,
2013-03-04 21:30:00,37.8,21.0,30.03,NW,322,0.0,-999.0,51,-99.99,,,0.00,weatherlink.com 1.10,2013-03-05 02:30:00,
2013-03-04 21:45:00,37.8,21.0,30.03,NW,322,0.0,-999.0,51,-99.99,,,0.00,weatherlink.com 1.10,2013-03-05 02:45:00,
2013-03-04 22:00:00,38.8,20.0,30.04,NW,322,0.0,-999.0,48,-99.99,,,0.00,weatherlink.com 1.10,2013-03-05 03:00:00,
2013-03-04 22:15:00,38.9,22.0,30.04,NW,322,0.0,-999.0,50,-99.99,,,0.00,weatherlink.com 1.10,2013-03-05 03:15:00,
2013-03-04 22:30:00,39.3,24.0,30.04,WNW,302,0.0,-999.0,55,-99.99,,,0.00,weatherlink.com 1.10,2013-03-05 03:30:00,
2013-03-04 22:45:00,39.6,27.0,30.04,WNW,302,0.0,-999.0,60,-99.99,,,0.00,weatherlink.com 1.10,2013-03-05 03:45:00,
2013-03-04 23:00:00,38.9,28.0,30.04,WNW,302,0.0,-999.0,66,-99.99,,,0.00,weatherlink.com 1.10,2013-03-05 04:00:00,
2013-03-04 23:15:00,39.9,30.0,30.04,NW,304,0.0,-999.0,68,-99.99,,,0.00,weatherlink.com 1.10,2013-03-05 04:15:00,
2013-03-04 23:30:00,41.9,29.0,30.04,NW,323,0.0,-999.0,60,-99.99,,,0.00,weatherlink.com 1.10,2013-03-05 04:30:00,
2013-03-04 23:45:00,42.9,31.0,30.04,NW,304,0.0,-999.0,63,-99.99,,,0.00,weatherlink.com 1.10,2013-03-05 04:45:00,